Flag for Brazil Weather past 2 weeks in Passo Fundo, Rio Grande do Sul, Brazil

Now
59 °F

Passing clouds.


Feels Like: 57 °F
Forecast: 56 / 65 °F
Wind: 12 mph from East

Location: Porto Alegre Aero-Porto

Current Time: Sep 2, 2014 at 1:34:43 AM

Latest Report: Sep 2, 2014 at 1:00 AM


Visibility: N/A

Pressure: 29.98 "Hg

Humidity: 88%

Dew point: 55 °F

Location of Passo FundoLocation

Historic Weather in Passo Fundo — Graph

°F

Passo Fundo temperature yesterday

Maximum temperature yesterday: 72 °F (at 1:00 PM)
Minimum temperature yesterday: 57 °F (at 9:00 PM)
Average temperature yesterday: 64 °F

Past Weeks' High & Low Weather Summary

 TemperatureHumidityPressure
High95 °F (Aug 24, 3:00 PM)100% (Aug 18, 6:00 AM)30.24 "Hg (Aug 18, 6:00 AM)
Low43 °F (Aug 28, 3:00 AM)25% (Aug 24, 3:00 PM)29.62 "Hg (Aug 24, 3:00 PM)
Average62 °F78%30.00 "Hg
* Reported Midnight between Aug 17 and Aug 18 — Midnight between Sep 1 and Sep 2, Passo Fundo, Weather by CustomWeather, © 2014

Note: Actual official high and low records may vary slightly from our data, if they occured in-between our weather recording intervals... More about our weather records

Advertising

Passo Fundo weather history for previous 24 hours

 ConditionsComfort  
Time TempWeatherWind HumidityBarometerVisibility
12:00 AM
Sep 2
59 °FPassing clouds.13 mph88%29.98 "HgN/A
11:00 PM
Sep 1
59 °FPassing clouds.14 mph88%29.98 "HgN/A
10:00 PM57 °FPassing clouds.7 mph94%29.98 "HgN/A
9:00 PM57 °FClear.9 mph94%29.98 "Hg10 mi
8:00 PM59 °FClear.9 mph88%29.98 "Hg10 mi
7:00 PM61 °FClear.10 mph83%29.95 "Hg10 mi
6:00 PM63 °FClear.9 mph73%29.95 "Hg10 mi
5:00 PM64 °FSunny.13 mph73%29.95 "Hg10 mi
4:00 PM68 °FSunny.12 mph64%29.92 "Hg10 mi
3:00 PM72 °FSunny.9 mph61%29.92 "Hg10 mi
2:00 PM72 °FPassing clouds.8 mph61%29.92 "HgN/A
1:00 PM72 °FScattered clouds.5 mph61%29.95 "HgN/A
12:00 PM70 °FScattered clouds.8 mph64%29.95 "HgN/A
11:00 AM68 °FScattered clouds.8 mph69%29.95 "HgN/A
10:00 AM68 °FScattered clouds.6 mph73%29.95 "Hg6 mi
9:00 AM64 °FFog.3 mph88%29.95 "Hg3 mi
8:00 AM63 °FFog.2 mph94%29.95 "Hg3 mi
7:00 AM59 °FPartly sunny.2 mph100%29.92 "Hg4 mi
6:00 AM61 °FPartly sunny.3 mph94%29.89 "Hg4 mi
5:00 AM61 °FPassing clouds.7 mph94%29.86 "Hg4 mi
4:00 AM63 °FPassing clouds.3 mph88%29.86 "HgN/A
3:00 AM64 °FMostly cloudy.2 mph88%29.86 "HgN/A
2:00 AM64 °FPassing clouds.5 mph94%29.86 "HgN/A
1:00 AM68 °FPartly cloudy.8 mph88%29.86 "HgN/A
Weather by CustomWeather, © 2014

See weather overviewHow to use our weather pages